GFSNIL_sfc_thetae_000.txt.gz
Theta_e
344 337 338 340 339 336 335 336 340 340 341 341 342 342 343 341 341 345 346 346 348 350
345 344 341 343 343 338 341 337 337 339 340 340 341 342 342 339 340 340 342 344 346 348
340 342 341 341 341 341 342 341 340 340 339 339 340 340 341 340 340 340 340 339 342 344
340 339 339 338 340 341 342 342 341 341 341 340 339 339 339 338 336 336 336 337 339 340
340 340 339 338 339 340 340 341 341 341 341 340 339 340 339 336 336 334 333 334 336 337
338 339 338 338 338 339 340 340 340 341 339 338 338 338 338 337 334 333 332 332 330 329
339 338 337 338 339 339 340 340 340 341 340 339 339 338 337 335 334 332 331 329 326 325
339 340 338 339 340 340 339 338 340 338 338 338 336 334 336 333 332 331 329 328 323 324
339 340 341 339 339 339 337 337 337 337 335 336 334 324 326 328 331 330 329 326 322 323
340 340 340 337 338 337 337 337 335 335 335 335 336 325 324 325 330 329 327 328 326 321
339 339 339 337 336 336 337 335 334 334 334 334 333 322 322 324 331 332 329 328 328 324
338 338 338 337 336 337 335 333 332 333 334 334 333 319 319 323 330 333 330 330 329 327
338 338 337 337 336 336 335 332 330 331 333 329 332 321 317 322 332 331 333 330 333 322
339 341 340 338 337 335 335 333 333 333 333 332 328 331 316 313 329 333 330 330 324 329

GFSNIL_sfc_thetae_003.txt.gz
Theta_e
345 338 338 340 340 337 337 337 343 343 342 343 343 343 346 342 340 346 343 343 346 345
346 345 343 345 344 339 343 339 340 341 342 343 342 342 344 338 341 341 344 341 344 341
340 343 344 343 343 343 343 343 342 341 341 342 342 344 345 341 342 342 337 336 338 340
341 341 342 340 340 342 344 344 342 341 340 341 341 342 343 341 340 338 339 339 338 338
341 341 340 340 340 342 341 343 342 341 341 340 340 343 340 338 338 337 335 334 333 331
341 341 341 341 340 340 340 340 340 341 340 340 339 339 339 339 337 336 334 333 331 330
340 342 341 342 341 341 342 341 341 342 341 339 339 339 339 338 337 335 333 333 331 329
341 343 343 342 342 341 340 339 340 341 339 337 337 333 338 338 335 334 333 332 332 330
340 341 341 341 341 340 340 340 341 337 338 339 333 327 326 330 332 333 332 330 331 332
340 341 341 340 339 339 340 343 341 337 337 338 339 324 328 329 330 331 333 332 331 328
340 340 341 340 339 341 341 342 340 338 339 338 335 322 324 327 331 332 334 335 334 333
340 340 340 339 340 341 341 338 337 338 337 339 339 320 320 326 330 333 334 334 335 334
340 339 339 341 342 341 341 335 332 333 335 329 338 326 317 322 328 334 330 333 334 324
341 344 343 343 334 339 338 337 336 333 336 336 332 327 317 315 329 327 327 328 328 326

GFSNIL_sfc_thetae_006.txt.gz
Theta_e
354 350 349 353 347 345 344 346 351 349 349 348 348 347 347 343 343 344 342 340 340 340
354 353 351 353 353 346 352 343 345 347 347 347 347 346 346 342 341 343 341 340 339 335
352 351 352 352 350 350 350 350 348 346 345 345 345 346 344 342 340 339 339 338 337 338
347 347 350 348 347 349 351 351 348 347 344 343 342 344 342 342 340 336 339 338 336 336
349 349 349 348 347 350 349 350 348 346 344 341 341 342 339 339 338 337 335 336 335 334
348 347 348 348 349 348 348 346 346 345 342 341 341 341 340 339 338 338 337 336 333 333
346 347 347 349 350 348 347 346 345 345 344 341 341 340 339 338 337 335 336 336 333 332
349 348 349 348 348 347 347 346 346 344 343 343 340 335 339 338 337 336 334 335 333 331
347 346 346 347 348 347 347 346 346 342 341 341 337 329 333 334 336 335 333 331 332 331
346 345 346 346 346 346 347 346 344 342 341 340 339 326 327 331 333 332 331 332 331 329
345 344 346 345 345 347 346 345 342 340 341 339 337 324 323 327 331 332 332 332 331 328
344 344 344 344 344 346 343 342 341 341 339 337 338 323 319 322 330 330 329 333 331 330
346 345 344 344 344 342 346 341 336 335 338 333 339 319 318 323 322 323 326 330 331 323
347 347 347 348 346 343 338 336 337 337 337 337 334 329 320 317 323 324 325 323 324 328

GFSNIL_sfc_thetae_009.txt.gz
Theta_e
332 330 332 337 333 329 328 331 334 333 335 334 335 335 334 331 330 332 330 329 328 328
334 334 335 334 333 331 335 333 334 334 333 334 335 335 332 331 330 329 329 329 329 326
338 336 335 334 332 332 331 334 333 334 334 333 333 333 332 329 330 328 328 329 327 327
339 337 336 334 332 333 334 335 334 334 333 332 332 333 332 330 330 329 328 328 327 326
331 332 334 333 332 333 333 334 334 333 333 333 332 331 330 328 330 328 327 327 325 326
333 331 331 333 333 333 332 332 331 333 331 331 331 330 331 329 329 327 327 327 326 324
334 333 333 334 334 334 333 332 333 333 332 331 331 331 332 331 327 328 327 328 327 324
335 334 335 334 335 334 333 334 333 332 331 331 333 333 326 329 331 330 326 327 326 326
336 335 335 334 335 333 332 333 333 331 330 330 333 328 328 328 324 326 324 323 324 324
336 334 334 335 335 335 333 331 329 330 330 328 329 327 327 328 323 322 323 323 322 323
334 334 334 333 333 333 331 329 329 329 328 329 329 324 323 325 321 323 324 324 323 322
334 333 333 334 333 332 331 330 331 330 328 327 326 319 319 320 319 320 319 322 323 322
335 334 334 334 334 332 331 329 328 324 328 325 321 319 318 318 317 313 317 320 321 321
336 335 335 335 333 332 330 322 322 324 326 325 323 319 317 315 315 318 317 315 316 315

GFSNIL_sfc_thetae_015.txt.gz
Theta_e
325 324 324 323 326 325 326 329 329 329 330 328 329 330 329 327 326 326 326 324 324 323
325 325 324 327 328 324 324 330 330 330 330 329 329 330 328 326 326 326 325 325 325 322
327 329 329 329 327 327 328 329 329 329 328 328 329 328 326 325 326 325 324 325 324 323
327 329 329 329 328 329 327 327 328 329 328 329 328 327 326 326 326 325 323 323 324 324
329 329 329 329 328 328 327 328 329 330 329 328 328 328 326 325 326 325 324 324 323 324
331 331 330 330 329 328 328 328 330 328 327 327 327 326 326 325 325 325 324 324 323 323
331 333 332 331 330 329 328 327 327 326 326 326 327 327 327 326 325 325 325 324 323 323
332 334 332 332 331 330 329 329 327 327 327 328 329 330 326 326 326 323 323 323 323 322
333 332 329 329 330 330 328 329 328 327 327 327 329 327 328 329 321 321 320 319 320 320
334 334 332 331 330 328 329 328 328 327 328 327 326 324 324 328 323 321 318 317 317 318
334 332 332 331 330 329 330 328 328 327 326 326 327 322 322 325 323 319 318 317 317 316
334 331 331 329 330 329 329 328 328 326 324 325 326 320 318 319 319 317 315 314 314 316
334 333 331 330 330 329 329 328 327 324 324 324 326 320 316 316 316 313 312 313 314 315
330 330 330 329 330 330 327 324 323 323 325 326 324 322 315 313 314 313 313 311 309 310

GFSNIL_sfc_thetae_018.txt.gz
Theta_e
339 333 331 330 327 329 330 333 334 333 334 332 332 333 334 333 332 332 332 331 330 331
334 328 328 328 328 329 331 333 333 333 334 333 333 334 334 332 332 332 331 331 330 329
330 328 327 328 329 328 329 332 333 332 333 334 333 334 332 331 332 331 330 330 330 329
329 328 328 329 331 330 330 331 332 333 332 332 332 333 331 331 331 330 330 330 328 329
330 330 330 330 331 331 331 331 332 332 332 332 333 333 331 331 331 330 329 330 329 329
329 330 331 332 331 330 330 330 332 332 332 332 332 332 332 330 330 330 329 329 329 329
329 330 331 332 332 330 330 330 330 332 332 330 331 330 331 331 330 330 330 330 329 328
332 333 333 334 334 333 330 330 330 331 330 330 329 330 332 332 331 330 330 329 329 328
333 333 332 330 329 330 332 330 330 330 330 330 331 328 328 332 331 330 327 327 327 326
331 330 330 329 329 330 331 330 330 330 330 331 331 325 325 328 332 328 327 326 325 324
328 329 330 330 328 330 332 330 329 330 330 331 332 323 321 324 330 329 327 324 323 323
330 330 331 332 331 332 331 331 330 331 331 330 331 320 320 323 327 325 324 321 320 320
332 331 333 332 332 333 332 332 331 327 328 325 328 320 318 321 324 321 319 319 320 316
335 335 334 332 332 331 329 329 326 326 326 327 326 327 318 316 319 320 318 318 316 316

GFSNIL_sfc_thetae_021.txt.gz
Theta_e
359 356 351 353 347 342 342 341 347 348 348 347 345 344 344 342 342 343 341 341 340 337
360 357 353 353 346 342 344 342 345 347 346 344 342 343 345 341 342 342 342 341 341 339
356 355 354 347 339 343 343 344 345 345 344 343 343 344 344 341 342 341 340 339 340 340
353 350 340 343 336 337 340 341 344 343 343 343 343 343 343 342 341 340 341 341 340 340
348 337 343 340 340 339 338 339 340 341 342 342 343 343 342 340 338 339 338 338 339 339
337 342 339 337 338 336 337 336 337 339 340 340 341 341 342 341 339 338 337 338 339 338
340 342 341 339 336 332 334 334 335 337 338 340 341 341 340 339 339 339 339 339 340 339
342 344 342 341 338 331 333 334 337 335 337 339 339 338 339 339 340 341 339 340 340 339
342 343 342 341 339 337 332 335 337 335 335 337 337 329 329 336 340 341 339 337 339 339
343 342 341 339 339 338 337 337 336 336 337 338 338 327 327 331 339 340 340 339 339 336
342 341 342 339 337 339 339 336 337 338 339 339 340 325 323 327 338 339 339 340 339 336
343 341 340 337 337 340 340 338 337 339 339 339 341 320 320 323 331 330 330 336 334 331
343 341 338 338 338 340 339 339 337 338 339 333 339 319 317 322 325 325 326 327 326 319
342 340 340 340 340 339 339 338 338 338 339 336 336 328 315 315 323 324 323 324 326 326

GFSNIL_sfc_thetae_024.txt.gz
Theta_e
367 361 361 362 356 350 345 345 353 351 352 352 352 350 348 343 343 344 342 343 342 337
366 364 362 364 364 354 354 347 350 351 350 351 350 348 348 342 344 344 343 342 343 340
363 365 365 363 362 357 353 350 349 349 349 349 348 347 349 343 344 344 339 339 341 342
361 362 362 361 360 356 352 350 349 349 347 347 345 347 347 346 342 342 343 342 341 341
364 362 360 358 354 352 349 348 347 345 345 345 346 347 345 343 340 340 340 340 341 340
361 359 356 354 352 347 345 346 341 344 343 344 345 346 346 344 341 341 340 341 340 340
360 359 356 356 349 344 346 345 343 339 344 345 345 344 343 343 343 342 341 342 342 341
364 357 355 358 352 349 347 344 343 341 342 344 342 340 343 343 341 341 342 342 342 342
359 354 357 355 352 348 348 346 345 343 342 343 339 330 332 340 341 341 342 341 342 342
358 354 353 352 349 349 344 341 345 343 343 342 343 327 328 332 340 340 343 343 344 340
356 353 352 352 349 347 341 343 342 343 344 344 341 326 325 329 339 342 342 335 334 333
354 352 350 349 349 346 343 342 342 342 343 344 344 323 322 328 339 338 332 332 332 332
355 353 350 348 348 347 344 340 340 341 345 336 344 318 318 328 338 334 331 330 330 323
355 352 350 349 347 345 343 342 342 342 343 343 342 340 315 317 334 331 332 329 326 329

GFSNIL_sfc_thetae_027.txt.gz
Theta_e
376 363 361 365 356 352 346 347 362 358 357 353 355 354 352 344 343 347 343 343 343 337
374 371 362 367 370 358 363 348 356 355 354 354 351 350 350 343 345 345 345 344 345 340
372 373 373 373 371 367 364 358 357 354 353 353 350 352 352 348 349 347 342 339 345 343
370 369 371 368 369 369 368 362 357 356 354 353 348 351 351 350 346 345 346 344 343 345
371 370 368 368 369 369 366 362 357 356 353 351 350 350 348 345 343 342 342 343 345 341
370 369 367 369 369 369 363 359 354 355 352 349 348 348 349 347 346 344 342 341 341 340
370 370 368 370 369 366 361 356 353 353 352 348 348 346 346 345 344 343 342 342 344 341
372 372 372 369 367 363 360 353 353 352 346 346 342 342 347 346 343 344 342 343 342 345
372 372 369 367 367 361 356 353 351 348 343 343 343 333 334 343 342 345 344 344 345 345
372 370 365 363 363 358 355 352 350 347 346 345 347 327 329 333 343 343 345 344 345 341
369 365 362 360 361 360 355 351 347 347 348 347 347 325 325 331 342 344 345 346 345 342
365 364 361 354 357 358 355 349 348 347 348 346 346 324 323 329 340 340 344 345 340 339
365 361 357 356 356 357 353 349 345 344 347 337 344 324 320 328 347 344 338 344 341 326
360 360 359 357 357 351 346 343 344 342 341 343 342 343 317 317 345 341 342 337 335 333

GFSNIL_sfc_thetae_030.txt.gz
Theta_e
366 366 364 364 361 355 356 352 357 359 360 358 355 355 352 347 345 346 345 343 345 340
368 366 363 365 363 364 360 362 356 357 358 356 354 352 352 347 345 347 348 345 346 344
368 369 366 365 364 359 367 360 358 356 356 354 354 353 353 347 350 348 347 345 344 344
368 369 367 364 363 364 363 361 356 354 353 353 352 352 350 348 348 346 345 343 343 340
369 368 367 363 366 367 362 362 356 355 353 352 351 350 349 345 343 345 344 343 344 342
367 366 365 365 362 365 364 362 356 354 352 351 349 349 348 347 345 344 340 344 343 342
366 366 365 365 365 365 366 362 356 354 352 351 349 349 347 347 346 344 343 344 343 342
367 367 367 366 366 366 365 362 358 353 351 349 345 347 346 346 344 343 342 342 343 343
365 367 367 366 366 364 364 360 357 351 349 347 343 335 335 344 343 343 342 340 344 345
365 366 366 367 365 363 362 359 353 350 348 344 345 330 330 336 343 342 341 342 343 342
366 366 367 366 364 363 361 355 350 348 346 344 346 326 326 332 338 339 343 341 343 342
367 367 366 363 362 360 358 351 348 346 346 345 346 324 322 328 336 335 338 341 344 343
369 367 364 362 361 362 360 351 346 344 345 339 344 322 319 325 335 333 337 342 342 328
368 367 366 361 359 357 355 353 347 344 343 345 341 341 317 317 338 340 339 338 339 341

GFSNIL_sfc_thetae_033.txt.gz
Theta_e
355 358 353 351 351 346 346 344 346 352 351 349 344 341 340 336 337 337 333 331 329 331
354 355 358 353 350 351 347 347 346 352 351 348 344 343 340 337 335 336 335 333 334 330
358 357 356 356 353 351 351 350 347 352 351 348 345 343 340 337 339 336 337 334 333 332
359 360 358 356 354 353 350 350 349 351 350 347 345 343 341 337 336 338 334 336 333 333
359 362 360 358 355 355 351 351 350 349 349 347 345 343 342 338 338 336 335 334 332 331
360 359 361 359 357 356 355 352 349 348 346 346 345 344 343 340 336 337 337 336 334 332
360 360 361 362 358 356 357 353 348 348 346 346 346 344 343 340 338 336 336 338 337 334
360 361 361 361 360 356 357 356 349 346 346 346 345 344 341 341 339 337 335 337 339 338
358 360 360 359 359 358 355 357 352 347 346 344 346 335 337 341 340 339 337 336 336 335
357 358 359 359 358 358 356 358 353 348 345 342 342 331 333 337 340 339 337 337 336 337
355 358 359 359 358 358 358 354 351 347 344 341 341 329 326 332 338 335 336 338 336 335
355 357 359 358 358 358 356 353 348 344 342 340 339 327 323 326 333 333 332 336 338 338
356 357 359 359 358 355 353 349 345 343 342 336 340 323 321 324 333 331 331 333 335 329
360 361 360 358 356 355 349 346 343 341 341 341 339 332 317 317 332 331 331 333 334 334

GFSNIL_sfc_thetae_036.txt.gz
Theta_e
351 349 346 344 345 346 345 345 349 347 347 341 339 335 334 331 331 331 330 330 327 327
350 353 352 348 348 344 342 342 347 347 347 343 341 337 335 333 332 333 331 329 327 328
348 351 354 352 348 347 344 344 344 346 346 344 341 339 337 333 332 332 332 332 330 328
349 349 351 354 353 349 348 345 343 347 347 345 342 340 336 334 335 332 332 333 331 329
352 352 350 350 353 353 349 348 345 345 348 346 343 341 338 334 335 334 331 331 331 330
353 353 352 352 351 354 352 347 346 346 347 345 344 341 340 337 335 334 334 333 331 330
353 355 355 355 353 352 354 349 346 346 346 346 345 343 341 339 336 335 334 334 334 333
354 356 357 357 357 355 353 352 349 346 344 344 344 344 341 340 337 335 333 334 336 337
356 356 356 357 358 356 354 353 348 346 344 342 344 336 336 341 339 337 335 333 333 337
356 356 356 357 357 356 353 354 348 345 344 343 344 332 333 337 340 337 336 334 332 334
355 355 357 357 356 356 354 353 349 345 344 344 344 329 328 333 341 337 335 335 333 335
355 354 356 355 355 356 356 353 352 347 345 344 344 325 325 329 338 332 332 334 335 336
354 354 355 356 356 357 356 353 351 347 347 339 343 323 320 324 332 333 333 330 334 328
352 353 356 357 357 356 355 350 348 345 344 340 336 330 319 318 332 332 331 331 331 333

GFSNIL_sfc_thetae_039.txt.gz
Theta_e
347 345 344 342 343 343 344 346 349 349 347 342 338 335 332 331 329 328 327 328 325 325
347 345 344 342 342 344 345 346 346 347 346 342 337 333 332 330 329 329 327 328 326 326
347 347 346 344 344 343 343 342 345 345 345 343 338 334 332 330 329 331 329 328 326 326
348 349 350 349 347 345 343 341 342 344 344 343 339 336 334 331 331 329 329 330 328 328
346 347 349 350 350 348 344 342 341 343 344 343 341 339 336 333 334 330 328 329 329 329
346 346 346 347 350 351 349 346 343 342 344 343 342 339 338 336 335 333 332 330 330 329
347 347 346 346 347 350 351 347 346 343 343 345 344 342 340 338 335 334 333 333 332 330
348 349 349 348 346 347 349 350 347 345 343 345 344 344 341 339 337 335 333 333 333 332
348 350 350 350 350 348 348 348 348 345 344 344 344 337 335 340 339 337 335 333 333 334
349 349 351 352 352 351 349 349 347 346 344 343 344 331 332 336 341 338 335 333 332 332
350 350 351 352 352 353 353 350 349 346 345 343 343 328 327 334 341 338 337 337 335 332
351 351 351 351 352 353 355 353 352 348 344 343 343 325 325 330 340 337 337 336 334 333
352 352 352 353 353 354 355 354 353 349 345 339 344 323 320 332 339 336 334 331 331 327
351 353 354 354 355 355 355 354 352 349 347 346 344 326 318 323 336 335 333 331 329 331

GFSNIL_sfc_thetae_045.txt.gz
Theta_e
359 356 356 357 354 353 353 354 362 361 363 363 362 361 359 353 350 350 346 346 345 342
358 358 356 360 361 355 361 356 359 361 361 362 362 361 359 353 350 347 347 346 346 342
356 358 359 360 359 360 362 360 359 361 362 363 362 360 358 355 353 348 345 344 345 344
356 357 359 358 359 360 362 362 361 361 361 361 360 360 357 356 352 348 347 345 344 344
357 358 357 358 359 361 360 362 362 362 360 360 360 359 356 354 351 349 346 346 344 342
356 356 356 357 359 360 360 360 360 361 360 359 359 358 357 355 353 350 348 347 345 344
353 355 356 357 359 359 360 359 360 360 360 361 360 358 356 355 353 351 349 348 348 346
355 357 357 358 358 359 360 359 359 358 359 360 359 355 357 355 354 352 350 349 348 348
355 357 357 357 358 359 359 360 360 358 357 357 354 340 339 352 354 353 353 351 350 350
355 355 356 357 358 358 358 360 359 359 358 356 357 333 333 338 356 355 354 354 353 348
355 355 356 356 356 357 357 357 359 359 359 357 356 330 329 335 353 356 357 355 353 350
354 355 356 355 355 356 356 356 356 359 360 358 358 328 326 333 350 353 356 354 353 351
356 355 355 356 356 358 357 356 354 356 359 350 359 328 323 332 350 352 352 352 352 331
357 357 356 358 359 359 358 358 358 357 358 359 355 354 319 321 351 351 349 347 345 343

GFSNIL_sfc_thetae_048.txt.gz
Theta_e
369 358 358 363 357 356 355 355 362 362 365 367 366 367 367 363 360 359 356 354 351 340
367 367 360 367 369 360 367 358 361 362 364 365 366 367 368 362 361 359 358 355 353 346
366 368 368 369 368 369 368 368 362 362 362 364 366 367 368 364 363 360 355 352 353 351
365 364 366 365 369 370 371 372 367 367 363 362 365 367 367 366 363 360 358 355 352 352
367 367 365 366 368 370 370 373 372 369 367 364 364 368 366 363 361 359 357 355 353 351
365 365 366 368 368 369 370 371 369 371 370 367 366 366 365 365 362 360 359 356 354 351
364 365 366 367 368 368 370 370 371 371 372 370 368 367 364 363 363 362 359 358 356 354
365 367 368 368 369 370 370 370 371 370 371 370 367 361 366 366 365 365 361 360 357 355
365 368 367 368 369 369 369 370 370 369 369 368 362 344 339 358 364 364 364 362 361 360
365 366 367 366 368 368 368 368 368 368 368 367 369 336 334 341 363 363 364 365 364 356
365 365 366 367 367 368 368 367 368 368 368 368 367 335 330 336 360 363 366 366 366 364
364 365 365 365 366 368 365 365 364 365 368 369 367 329 326 334 357 358 364 367 367 366
365 365 365 366 366 367 366 361 360 360 365 353 366 337 322 330 352 353 353 359 362 338
367 367 368 368 368 366 364 363 364 361 365 364 361 362 323 319 346 349 349 353 354 359

GFSNIL_sfc_thetae_051.txt.gz
Theta_e
370 360 358 361 357 355 354 355 371 373 369 370 371 369 374 364 362 366 359 358 357 342
371 369 361 364 368 358 368 356 363 366 368 370 370 372 374 362 367 365 363 363 361 350
371 372 369 368 369 367 367 371 369 368 367 368 371 372 374 367 369 369 360 355 363 360
370 371 372 368 370 370 375 375 371 373 369 369 369 372 373 371 369 368 366 363 364 360
371 371 370 371 370 374 372 376 376 372 373 369 369 371 372 368 363 367 365 362 362 359
369 370 369 370 373 373 374 374 373 375 372 371 369 369 372 371 369 367 367 365 362 358
368 370 369 371 373 373 374 374 373 374 374 374 372 369 369 371 371 369 366 367 365 361
369 372 372 372 371 374 374 374 375 374 374 374 372 367 368 368 370 370 368 367 366 364
369 372 372 372 372 373 373 373 374 373 373 372 368 347 341 359 366 369 368 366 368 367
369 370 372 373 373 373 372 373 372 373 373 372 373 339 335 341 366 367 369 367 368 365
368 369 372 373 372 373 373 372 372 372 373 373 372 337 330 336 362 364 367 366 364 366
368 369 370 370 371 372 372 372 372 373 373 372 372 332 328 335 360 359 362 364 365 362
370 370 369 371 372 373 373 371 366 368 372 360 373 333 325 334 359 358 358 360 363 340
370 371 372 373 373 373 372 367 369 368 371 372 367 360 324 323 355 355 356 356 356 359

GFSNIL_sfc_thetae_054.txt.gz
Theta_e
362 362 354 356 356 353 358 357 366 364 364 367 368 366 370 368 365 365 362 363 357 352
362 360 361 356 360 362 361 358 376 366 365 367 369 368 366 365 364 366 363 360 361 356
366 361 360 364 357 357 364 373 375 367 367 366 366 368 366 365 366 363 362 358 358 357
365 366 363 359 362 360 363 364 367 372 366 364 365 365 366 365 364 363 362 360 360 356
366 366 365 362 362 364 364 370 366 368 368 364 363 364 365 363 360 363 361 360 359 358
365 365 365 365 363 365 365 365 369 369 365 364 363 362 364 364 365 362 363 362 359 355
364 365 366 367 367 365 365 367 365 367 367 365 365 363 363 364 364 364 362 364 362 359
365 367 367 367 366 367 367 365 368 367 367 367 366 364 362 362 364 364 363 362 363 361
364 365 366 366 366 367 367 367 367 367 367 366 366 349 344 357 361 364 363 361 361 362
364 364 365 367 367 366 366 367 366 367 367 366 367 341 338 343 362 361 362 362 361 360
365 364 366 366 367 367 367 366 366 366 367 367 367 341 334 337 358 361 361 360 362 361
364 365 365 365 366 367 367 367 366 368 367 367 366 335 332 334 353 356 357 361 361 362
364 364 365 365 367 368 369 367 368 367 368 357 367 339 328 334 360 355 355 358 359 339
364 365 366 368 368 368 368 367 366 366 367 368 365 364 324 323 360 359 357 356 354 357

GFSNIL_sfc_thetae_057.txt.gz
Theta_e
350 350 346 347 345 343 348 352 355 357 359 357 356 356 356 353 355 352 349 350 345 337
348 352 349 344 348 350 346 352 355 356 355 359 357 355 353 357 354 354 352 349 349 343
354 350 353 350 346 346 348 352 352 356 356 358 359 358 354 355 357 353 353 351 349 347
357 356 351 353 352 348 347 350 359 359 357 357 357 358 356 352 354 354 353 351 350 347
356 359 355 350 351 351 349 352 352 360 359 358 357 356 356 355 356 354 353 353 348 349
356 356 358 356 353 353 353 353 356 353 359 358 357 357 356 357 356 353 355 355 353 349
357 357 358 359 358 354 356 355 358 358 355 358 357 357 357 358 357 356 355 357 357 354
357 359 359 358 360 359 355 358 356 356 359 359 359 358 356 356 357 357 357 356 357 357
358 358 359 359 359 360 359 356 357 358 356 359 360 346 343 353 356 357 357 357 357 357
356 357 358 360 360 359 359 360 358 357 360 359 360 340 338 342 356 355 357 357 357 357
355 357 358 358 358 359 360 359 359 359 359 360 361 340 334 338 356 356 356 357 359 358
355 356 357 357 358 360 359 359 359 360 360 360 361 334 332 334 353 355 356 356 356 357
356 357 356 358 358 361 361 359 360 359 361 352 360 337 328 333 355 353 353 355 355 338
357 357 359 359 360 360 361 361 360 360 360 362 358 358 326 324 356 358 355 354 353 353

GFSNIL_sfc_thetae_060.txt.gz
Theta_e
344 345 343 339 339 338 346 351 352 354 356 354 353 351 350 348 349 348 345 344 340 334
348 346 344 342 340 341 343 351 351 353 355 355 354 352 352 349 349 350 347 344 346 340
345 349 351 344 341 345 344 346 350 351 353 355 354 353 350 351 351 351 350 348 344 344
347 345 347 349 344 343 343 346 347 351 352 352 355 353 350 349 352 350 350 350 347 345
349 349 346 345 351 347 343 343 346 354 352 352 353 355 353 350 352 353 350 351 349 348
350 351 351 348 347 350 348 346 346 353 355 354 354 353 355 355 352 351 353 352 351 349
348 352 355 354 351 348 351 349 347 349 354 356 355 355 354 354 354 353 353 352 353 352
351 351 353 356 355 352 349 350 351 350 350 355 356 356 354 353 352 352 353 353 353 354
351 353 353 354 355 356 353 351 351 350 352 353 356 344 341 351 354 353 351 351 352 353
351 352 354 355 355 355 355 354 351 353 352 351 356 338 337 341 353 352 353 352 353 353
351 353 354 355 355 355 356 356 355 352 353 355 354 336 332 337 352 354 353 354 354 353
352 353 354 354 355 356 356 356 357 357 356 353 355 333 330 333 350 353 354 355 354 354
349 353 354 355 355 357 357 357 358 357 358 350 357 334 327 332 354 352 353 355 356 338
349 349 353 355 356 356 357 356 356 356 357 358 355 355 324 324 355 356 355 354 354 355

GFSNIL_sfc_thetae_063.txt.gz
Theta_e
343 341 341 340 337 337 338 343 346 350 352 350 350 349 348 345 345 344 342 341 338 332
344 343 342 339 339 338 339 345 347 349 351 351 351 350 349 347 345 346 344 342 342 338
345 344 344 341 338 337 339 342 347 348 349 352 352 351 349 348 347 346 346 346 341 341
345 345 345 342 342 342 341 340 342 347 348 349 352 351 349 348 350 347 347 347 345 343
344 344 346 347 343 342 342 343 344 344 348 349 350 352 350 348 350 349 348 348 346 346
344 343 342 343 348 347 343 342 341 347 348 348 349 350 352 351 349 348 349 350 348 349
344 345 346 344 343 346 349 346 343 342 346 351 351 351 351 353 351 349 349 350 351 350
344 346 347 348 347 345 346 348 348 346 344 350 352 353 352 351 352 351 350 351 350 351
344 345 348 350 350 349 346 345 348 347 347 346 350 341 340 349 351 350 350 350 351 351
346 346 346 349 351 352 349 348 345 346 347 346 348 335 335 340 352 350 349 349 349 349
346 347 349 348 349 350 353 352 350 347 348 348 349 334 332 336 349 351 351 351 351 350
347 346 348 350 350 351 351 353 353 352 350 349 351 329 329 332 348 350 351 352 352 352
346 347 348 349 351 353 353 353 354 354 355 345 351 332 326 330 349 348 350 352 353 337
347 348 350 351 352 353 353 354 354 354 355 356 352 352 323 322 350 352 351 351 352 354

GFSNIL_sfc_thetae_066.txt.gz
Theta_e
342 341 342 342 341 341 339 342 347 350 354 354 354 353 353 350 349 350 349 349 346 342
343 342 342 342 343 342 342 344 346 349 352 354 353 354 353 351 350 351 350 348 348 345
344 344 344 342 341 342 342 344 347 349 350 353 354 354 353 352 352 351 350 349 348 347
344 345 345 343 342 342 343 342 344 348 350 351 353 354 353 353 353 351 351 351 350 350
345 346 344 344 344 344 342 342 344 346 349 350 352 354 353 352 353 352 351 351 351 351
344 344 344 345 344 344 344 344 345 344 345 347 350 352 354 354 353 352 353 353 352 352
344 344 345 346 348 346 345 344 344 346 348 349 350 351 352 354 353 352 352 353 353 353
344 345 345 344 345 349 349 346 346 344 345 347 349 351 352 353 354 353 352 353 353 354
344 345 345 345 345 344 345 349 349 347 347 345 346 339 337 347 352 354 354 353 353 354
343 344 345 347 347 346 344 345 346 348 348 347 347 333 333 338 352 352 352 353 354 353
343 343 345 346 348 349 349 347 345 346 348 348 348 331 330 334 349 352 352 353 353 352
345 345 345 345 347 350 352 351 350 349 347 347 348 329 328 331 346 348 351 353 354 354
347 347 347 348 347 349 351 352 354 353 353 344 350 331 324 330 349 348 349 352 354 335
347 347 348 349 351 351 351 352 352 353 355 355 350 350 323 321 347 350 350 350 352 355

GFSNIL_sfc_thetae_069.txt.gz
Theta_e
357 351 351 354 351 349 348 350 358 360 362 363 365 365 365 361 360 362 360 360 359 354
356 355 353 357 356 351 356 350 355 357 359 361 362 364 365 361 362 361 362 360 361 359
355 356 356 356 355 357 356 355 354 356 357 359 361 362 364 361 363 363 361 359 360 360
354 354 355 353 355 357 357 356 356 358 358 358 359 361 362 362 361 361 362 363 362 361
355 356 353 355 354 355 356 357 356 357 357 357 358 360 360 359 359 360 360 361 362 361
354 354 355 356 357 356 356 357 355 356 356 358 357 358 360 360 360 361 361 362 362 361
354 355 355 357 357 356 358 357 356 358 358 357 356 356 356 357 359 360 361 362 362 362
355 356 357 357 357 356 356 357 359 358 356 357 356 352 357 357 358 359 360 362 362 363
356 356 356 357 357 357 356 355 357 356 355 355 352 339 337 351 356 358 359 358 361 363
356 355 356 356 356 357 358 357 357 356 356 356 357 335 333 338 354 357 359 362 361 357
355 354 356 356 355 356 354 356 357 356 358 357 357 333 331 334 353 358 361 362 362 362
353 354 355 355 355 356 356 355 355 356 357 359 359 330 328 333 351 351 358 360 363 363
355 354 354 356 356 358 359 356 355 355 356 347 358 334 325 332 351 354 352 360 363 338
356 356 357 357 359 358 358 359 359 359 360 360 356 356 324 321 353 353 354 354 356 358

GFSNIL_sfc_thetae_075.txt.gz
Theta_e
366 353 352 362 353 350 349 351 372 365 364 364 366 363 368 362 360 367 360 362 365 355
363 361 355 366 368 357 365 353 357 358 364 364 364 367 373 360 362 364 364 364 366 360
362 364 365 368 370 366 367 366 360 360 359 362 365 366 373 365 369 366 360 360 371 369
362 361 364 362 367 367 369 370 368 365 362 361 362 366 371 371 368 368 369 367 366 367
364 364 363 363 363 368 368 371 371 369 367 363 362 367 367 361 361 361 362 363 369 365
364 364 364 365 365 366 368 370 368 370 370 367 364 365 367 367 364 360 362 365 367 367
364 365 364 366 367 368 370 370 370 371 371 370 367 364 361 364 367 367 362 365 367 367
366 367 367 366 368 369 370 370 371 371 371 369 365 359 363 363 364 367 365 365 365 367
366 368 367 367 368 369 370 370 371 371 370 368 359 342 339 355 360 363 364 364 367 369
366 367 368 368 369 369 370 370 370 370 370 369 370 336 334 339 360 362 363 365 366 362
366 367 369 370 369 371 370 370 370 370 371 371 368 335 331 335 360 360 363 365 368 368
366 367 369 368 369 371 370 371 370 372 372 371 370 332 328 336 357 358 363 366 367 367
368 368 369 370 370 371 371 370 364 367 372 359 372 337 326 336 356 358 355 363 367 341
370 371 372 373 373 373 370 366 369 369 372 373 367 368 325 322 362 355 354 353 353 356

GFSNIL_sfc_thetae_078.txt.gz
Theta_e
362 354 356 363 354 359 353 355 363 365 367 370 368 368 368 366 366 367 365 366 367 362
360 361 353 364 369 356 363 362 363 365 367 367 368 367 369 363 364 367 367 366 367 365
352 358 359 354 365 364 370 370 365 365 365 366 369 369 369 363 366 366 363 364 365 367
354 354 354 358 359 362 364 370 369 369 367 365 365 368 368 365 365 363 364 363 366 363
355 354 353 351 362 363 367 372 374 368 370 364 364 365 365 362 358 363 363 364 364 365
356 356 354 352 357 363 360 364 365 369 364 365 363 362 364 364 361 362 362 363 365 364
356 357 356 358 355 357 363 362 364 364 366 366 364 362 360 363 363 363 362 363 363 365
359 359 360 360 361 359 359 361 364 364 365 366 365 362 361 360 361 362 362 364 363 363
360 360 360 360 361 361 360 362 364 363 364 365 364 346 341 354 356 361 360 359 361 364
360 360 360 362 361 361 361 362 363 363 364 364 365 340 336 341 357 356 358 361 360 360
359 360 362 361 361 361 362 362 361 363 364 364 365 340 332 336 354 358 359 360 359 359
359 360 361 361 361 361 361 362 362 363 364 364 364 335 332 334 350 353 356 357 358 359
362 361 361 363 362 363 364 362 363 363 365 356 366 338 328 333 355 353 353 357 359 340
366 362 364 365 365 365 364 364 364 364 365 368 364 363 326 322 356 355 355 354 354 357

GFSNIL_sfc_thetae_081.txt.gz
Theta_e
348 345 347 351 348 349 349 349 350 358 357 355 356 354 356 352 354 354 352 350 351 351
351 344 345 347 349 348 348 350 350 356 357 357 355 355 355 352 353 353 352 351 349 351
346 351 348 346 352 349 345 349 353 354 358 355 356 353 355 352 354 352 350 352 353 351
343 350 349 347 343 352 350 356 357 356 355 355 355 356 354 351 353 354 352 352 352 353
343 346 349 346 346 352 349 352 356 356 356 355 353 353 354 353 352 351 352 354 351 351
346 342 345 346 344 349 355 356 358 355 354 352 352 352 353 354 353 351 353 355 354 354
346 347 344 344 343 348 352 352 355 357 354 356 353 353 352 355 354 352 353 355 353 354
348 348 349 346 346 341 353 352 352 354 355 356 357 357 352 352 354 354 353 354 355 354
351 350 349 350 349 346 343 351 354 354 355 355 359 346 343 350 351 354 354 353 353 355
351 351 350 352 351 352 348 346 350 354 356 355 357 340 339 343 353 350 353 353 352 352
353 351 352 351 352 352 354 351 351 353 355 356 358 340 335 338 348 350 349 351 354 353
352 353 353 351 351 353 353 354 352 354 356 356 357 335 334 333 338 345 349 351 351 351
353 353 353 354 353 355 355 353 356 355 355 349 357 336 330 333 351 343 344 348 350 337
355 353 355 355 356 355 355 355 353 354 356 357 355 356 328 323 353 353 348 346 346 350

GFSNIL_sfc_thetae_084.txt.gz
Theta_e
341 341 344 345 346 348 348 348 350 350 352 352 348 350 351 350 350 350 349 346 347 347
346 341 342 346 347 348 348 347 348 353 352 351 351 349 351 348 348 350 350 347 346 345
343 346 341 344 346 345 346 346 347 351 354 352 351 351 351 348 349 349 348 348 347 347
341 344 345 343 343 349 343 346 349 349 354 352 352 350 349 350 348 348 347 347 347 348
340 342 346 346 342 344 346 352 352 350 353 353 351 350 349 348 350 349 349 350 348 348
338 339 343 347 345 341 345 347 352 351 351 352 351 350 351 351 350 348 348 350 350 350
342 338 339 346 344 345 346 347 350 352 351 351 351 350 349 350 349 349 348 349 351 352
345 344 339 339 345 342 347 349 352 353 351 352 351 351 348 349 349 348 348 350 350 351
345 345 344 340 340 342 340 349 348 351 353 352 354 342 340 346 348 351 350 348 349 351
345 345 345 346 342 341 340 337 347 348 350 351 354 338 337 341 350 348 350 350 350 349
348 346 345 346 346 344 344 340 338 349 350 350 351 336 334 338 349 350 348 350 351 350
349 348 347 347 347 348 347 346 343 342 347 351 352 332 331 334 348 349 348 349 347 350
335 350 349 349 349 350 350 350 351 349 348 343 351 333 329 333 352 345 345 346 348 334
336 344 352 351 351 350 350 350 351 351 351 351 351 352 326 324 352 353 349 346 346 347

GFSNIL_sfc_thetae_087.txt.gz
Theta_e
337 339 340 341 341 345 347 348 350 348 350 350 349 348 348 348 348 348 346 344 345 344
338 337 339 343 344 344 345 349 349 348 349 350 348 346 348 347 346 348 347 346 343 342
342 341 339 341 345 344 345 344 346 349 349 349 349 346 347 346 346 345 346 346 345 343
342 342 340 340 342 345 345 343 344 346 350 349 348 349 347 346 346 346 345 345 344 344
339 340 343 341 340 341 345 344 344 346 346 350 350 348 347 346 349 346 345 346 344 345
338 338 339 343 342 339 343 345 348 347 346 349 349 348 349 347 346 346 346 348 347 347
338 338 338 340 344 344 340 343 345 349 349 348 349 349 349 349 347 347 347 347 347 348
342 339 338 338 341 343 344 344 344 346 349 348 348 350 347 348 348 347 345 346 347 348
343 342 338 337 337 341 342 344 345 346 346 348 351 340 338 345 346 346 345 344 345 348
341 342 342 339 336 337 340 340 342 345 348 348 349 336 335 339 348 346 346 346 346 346
344 342 343 343 340 336 338 339 337 340 345 348 350 334 331 336 346 346 346 347 347 347
338 343 345 343 343 343 340 338 338 336 336 343 346 330 330 332 345 347 348 348 347 348
336 335 339 346 344 345 345 343 343 341 338 335 343 329 326 331 348 347 347 349 347 333
333 336 336 338 348 346 345 346 345 345 344 341 341 344 324 323 348 349 347 347 347 346

GFSNIL_sfc_thetae_090.txt.gz
Theta_e
340 342 342 344 345 346 347 350 353 351 352 353 353 353 352 352 352 353 351 351 353 350
338 340 341 344 345 347 349 351 353 352 350 354 354 352 353 351 352 353 353 353 351 350
339 339 341 343 345 346 348 350 352 352 352 352 354 352 352 352 352 351 351 352 352 351
341 340 339 341 345 348 349 349 348 351 352 352 353 353 351 351 351 350 351 351 351 351
343 343 341 340 342 345 347 349 349 348 350 353 352 353 352 351 353 351 350 351 351 350
341 341 343 343 342 342 345 346 348 349 349 350 352 353 353 352 352 352 351 352 351 353
340 339 341 343 344 342 344 345 346 350 350 351 352 353 353 352 351 351 351 352 352 353
341 341 341 341 342 345 344 344 346 347 351 352 352 351 352 352 352 352 351 352 352 353
344 343 340 340 341 343 345 345 344 344 346 349 351 340 338 348 352 352 352 351 352 353
344 343 342 340 339 339 342 344 344 345 346 346 349 334 334 339 352 351 351 351 351 350
345 343 343 343 339 338 339 342 342 344 346 347 348 332 331 335 349 351 351 351 352 351
337 343 344 343 343 342 339 339 341 342 343 345 345 328 328 333 347 349 350 351 352 352
330 334 338 345 344 345 345 343 341 341 341 335 344 328 325 331 348 348 349 353 354 334
327 331 337 338 340 346 346 346 345 344 344 342 337 339 321 321 349 347 347 348 348 351

GFSNIL_sfc_thetae_093.txt.gz
Theta_e
356 352 354 358 355 355 355 357 365 364 363 363 363 362 363 360 361 363 361 359 363 360
355 354 354 359 360 356 361 358 362 364 363 362 364 363 364 358 362 362 363 362 362 359
352 353 354 356 358 358 360 361 361 362 362 363 363 364 364 361 362 362 360 359 361 362
351 351 353 352 355 358 360 362 362 362 363 362 362 364 364 362 361 361 361 361 360 360
352 352 351 351 352 356 358 361 362 362 361 361 362 364 362 360 359 359 358 359 361 359
350 350 351 352 353 353 355 358 360 361 361 360 361 361 362 362 361 361 360 360 360 359
350 352 351 354 354 353 354 354 356 358 359 360 361 361 361 361 361 361 360 361 360 359
352 353 353 353 354 355 354 353 356 356 357 358 359 358 361 361 361 361 361 361 361 360
352 351 351 351 352 352 353 354 354 355 354 354 353 339 340 354 360 362 361 360 361 362
351 351 351 351 350 351 351 353 353 353 353 355 357 334 335 340 360 361 361 361 361 359
334 349 352 352 351 351 350 351 353 352 353 355 354 332 331 336 357 361 361 361 361 361
328 331 336 349 350 351 349 350 350 351 353 353 355 328 328 334 351 353 360 360 361 362
327 328 331 335 339 346 350 347 347 348 351 343 355 332 324 332 348 350 348 358 363 337
326 326 330 334 337 339 344 349 351 350 351 352 350 351 322 321 351 349 349 347 348 350

GFSNIL_sfc_thetae_096.txt.gz
Theta_e
363 358 357 358 352 354 354 356 367 362 364 363 362 365 366 361 358 362 360 361 362 355
362 361 357 360 360 355 360 357 364 363 360 360 362 365 366 360 362 363 363 362 364 358
361 362 361 359 360 360 361 362 362 365 364 362 362 363 364 362 364 363 359 357 362 363
359 360 361 357 359 360 364 365 364 366 365 363 362 364 366 363 360 362 361 362 362 361
358 360 357 358 358 359 361 365 364 364 367 365 365 366 364 358 358 360 359 361 361 360
356 356 357 358 359 359 359 361 361 363 364 364 365 365 366 363 360 360 361 361 361 359
355 356 356 360 361 360 360 359 359 361 362 363 364 365 364 364 364 363 360 363 363 361
357 355 356 357 358 360 360 360 360 359 358 360 360 358 364 364 363 365 364 364 364 362
355 357 357 358 359 360 359 360 360 360 358 356 352 340 339 354 361 363 363 362 365 365
348 351 354 356 357 357 358 359 359 359 359 358 358 335 334 341 358 359 362 363 363 361
338 338 344 353 356 358 357 357 358 358 359 359 359 334 330 336 357 361 364 363 363 365
329 330 333 339 346 347 357 357 358 357 358 359 360 330 328 336 352 350 360 363 366 367
326 328 328 331 335 342 345 352 353 354 357 348 359 335 324 333 352 353 346 357 366 339
327 326 328 332 334 333 338 345 347 349 355 357 354 356 323 321 353 351 351 348 345 348

GFSNIL_sfc_thetae_099.txt.gz
Theta_e
365 358 355 360 355 355 351 354 366 362 362 364 363 363 366 361 358 367 360 361 366 357
367 365 359 364 363 356 361 361 365 360 363 363 362 364 367 362 361 363 363 364 364 358
363 365 364 361 361 364 364 361 355 363 359 361 363 363 367 364 365 364 360 355 368 365
362 363 364 360 360 361 365 363 364 365 363 362 360 362 366 366 364 363 364 363 361 362
362 362 361 362 360 361 364 367 364 365 365 364 363 367 363 359 357 359 358 358 362 359
360 361 361 361 362 362 364 364 362 366 366 363 364 366 367 364 360 360 360 360 359 358
361 361 360 361 363 363 365 364 365 368 368 365 364 363 361 364 367 364 360 361 361 361
360 359 360 361 362 362 365 363 365 365 364 362 361 357 365 366 365 368 366 364 363 363
354 357 360 359 362 362 361 366 367 364 363 361 353 339 339 352 363 366 368 367 368 369
338 341 352 357 359 360 362 362 364 365 364 364 365 339 333 340 358 362 367 368 370 362
331 333 338 342 356 358 361 361 362 360 363 364 363 337 332 334 356 361 365 366 369 368
330 330 332 336 339 345 355 355 360 360 362 362 365 333 329 336 354 353 359 364 367 368
334 328 329 331 332 335 341 348 350 354 360 351 362 339 325 333 354 355 353 359 361 341
334 335 331 331 333 334 334 338 341 345 350 357 357 358 324 321 357 355 353 353 354 353

GFSNIL_sfc_thetae_102.txt.gz
Theta_e
365 360 355 358 356 348 352 350 361 364 366 368 365 365 367 367 365 367 364 365 368 362
368 368 363 369 370 362 351 353 366 363 366 367 365 367 367 365 365 365 368 367 365 366
366 367 368 373 368 373 359 353 351 342 363 368 368 369 366 364 365 364 365 361 366 365
364 366 368 366 368 367 373 354 337 336 345 365 366 367 368 364 363 360 363 365 363 365
366 366 364 365 366 368 368 372 358 350 360 360 366 365 366 361 361 360 361 364 363 362
362 361 366 366 367 367 368 369 370 372 367 367 362 363 365 364 363 363 362 364 362 362
360 362 364 367 366 368 368 366 367 369 368 367 365 364 363 361 363 363 362 364 364 363
346 356 361 364 363 364 366 365 366 366 366 367 364 358 363 364 363 360 362 363 365 365
341 341 343 351 357 363 363 364 366 364 363 361 357 341 339 356 360 363 361 359 363 367
336 338 338 342 343 354 358 360 362 362 362 362 363 341 335 337 355 359 362 363 362 359
332 332 333 335 336 340 345 355 357 360 361 360 360 339 334 336 354 357 360 359 362 365
335 332 330 332 333 334 337 341 350 356 357 359 360 338 328 334 355 355 355 355 359 360
334 336 334 332 333 337 336 339 341 344 353 348 358 339 330 331 354 355 355 357 357 339
329 330 336 336 339 335 332 334 338 338 345 348 350 355 328 322 349 355 355 354 354 355

GFSNIL_sfc_thetae_105.txt.gz
Theta_e
347 344 337 343 349 346 347 347 347 355 354 353 355 355 352 349 351 353 349 351 349 351
351 346 344 344 350 346 348 352 353 354 354 354 353 353 353 351 349 350 351 349 351 351
353 353 354 353 351 349 350 347 345 346 350 353 355 354 351 350 352 352 349 352 346 349
353 353 354 353 350 350 349 347 341 342 339 345 353 353 353 351 350 350 350 350 350 349
352 353 354 354 354 352 347 347 344 338 339 344 352 352 351 349 351 350 348 350 351 348
350 353 352 354 355 354 353 350 345 343 348 350 352 353 354 354 352 351 352 351 351 349
340 347 350 353 355 356 356 354 354 353 354 352 353 353 353 354 353 353 352 353 353 353
339 340 343 348 350 353 354 355 355 355 356 356 356 355 353 353 353 352 351 351 354 356
338 339 339 340 339 348 350 351 353 353 351 351 358 345 340 349 351 353 349 348 351 354
333 333 335 338 338 339 339 347 348 350 352 352 354 342 336 336 345 350 353 352 352 352
327 328 332 333 334 336 338 340 342 347 350 351 353 340 334 334 339 343 345 348 351 351
325 328 326 325 329 332 334 337 339 341 339 343 350 337 329 333 341 345 346 347 348 351
322 322 322 325 327 327 329 333 336 336 337 336 342 335 328 329 343 348 344 349 349 336
319 319 319 321 328 329 327 327 328 332 334 338 338 338 329 323 337 345 346 346 349 350

GFSNIL_sfc_thetae_108.txt.gz
Theta_e
342 345 345 344 344 345 346 345 348 351 351 351 349 349 349 347 348 348 348 346 346 347
344 342 337 340 346 348 345 346 352 352 351 352 351 350 350 348 347 347 348 346 344 348
346 345 341 341 344 345 345 349 348 347 351 351 351 350 350 346 349 348 347 348 346 345
346 351 350 348 348 348 346 344 340 346 344 347 350 351 349 346 349 346 346 347 346 345
346 349 349 350 348 348 346 344 339 341 337 340 346 349 349 348 349 346 346 346 347 347
343 347 350 348 350 348 346 345 342 339 337 337 345 350 350 349 346 348 347 346 347 348
339 341 344 346 348 350 349 345 344 341 340 344 348 350 350 351 350 350 349 349 350 350
338 339 340 340 340 347 349 351 350 348 348 350 349 352 349 349 349 349 349 350 350 351
335 336 337 338 339 340 341 346 347 349 351 350 356 344 340 348 349 348 349 347 347 348
331 330 332 335 336 337 337 339 340 343 346 348 350 340 336 336 341 346 348 348 347 348
327 328 329 331 331 333 336 338 339 338 339 340 347 333 331 333 339 340 341 343 347 348
321 321 324 326 329 331 332 334 335 338 338 338 340 329 328 331 340 343 344 345 345 346
316 317 318 319 324 328 326 328 331 334 336 332 338 330 325 329 339 340 344 346 347 333
313 313 314 315 318 320 323 327 327 326 328 334 335 336 324 323 337 339 341 343 345 343

GFSNIL_sfc_thetae_111.txt.gz
Theta_e
338 336 341 343 343 344 344 345 347 348 348 348 348 347 348 346 346 346 346 344 345 345
339 342 342 343 344 345 345 346 346 349 350 349 349 349 347 346 345 345 345 345 343 344
343 343 339 340 342 345 344 344 345 348 350 349 348 348 347 346 345 345 345 345 344 343
343 346 343 341 342 343 344 344 346 345 348 348 348 348 346 344 344 344 343 345 345 344
341 343 345 347 349 348 344 344 342 341 342 344 345 347 348 346 347 345 343 343 343 343
339 342 346 347 349 347 345 344 342 337 340 339 341 345 347 347 346 345 345 345 343 344
338 341 341 344 345 347 346 344 343 339 337 338 337 343 348 349 348 347 347 347 347 347
337 339 338 338 338 341 344 347 346 344 342 341 343 346 346 347 347 347 347 348 349 349
332 337 337 337 337 337 339 341 343 345 348 346 352 341 337 345 347 347 346 345 346 347
328 329 332 334 334 335 335 339 339 339 340 340 343 329 330 335 342 345 345 345 346 347
320 324 328 329 327 329 332 331 334 337 338 337 341 327 327 331 337 340 340 340 342 344
315 317 318 320 326 328 329 330 331 333 335 335 337 328 324 330 339 340 340 342 343 344
314 315 315 315 318 322 326 328 329 330 332 330 337 329 326 329 339 337 339 341 343 325
308 310 311 311 312 314 316 319 322 327 327 329 330 331 317 318 336 335 338 340 341 339

GFSNIL_sfc_thetae_117.txt.gz
Theta_e
357 354 354 357 354 355 356 366 362 361 362 362 362 361 363 361 361 364 362 359 361 359
356 354 354 357 359 357 361 362 360 361 361 361 361 361 363 359 361 362 363 363 362 360
355 355 353 354 357 359 360 361 361 361 360 362 362 363 362 360 362 361 359 359 363 363
356 354 356 354 356 358 359 360 360 361 361 361 361 362 362 362 361 359 360 361 361 361
355 357 356 355 353 355 356 359 359 360 359 359 361 361 361 358 357 359 358 358 360 359
352 352 355 357 359 358 358 359 358 357 357 357 359 361 360 361 359 358 359 359 358 358
346 347 347 352 359 360 361 360 358 357 356 355 355 356 358 360 360 360 359 360 359 358
343 345 347 347 351 358 361 360 359 358 357 354 353 351 354 356 357 358 357 358 360 360
342 342 340 343 346 349 353 355 356 356 358 358 356 329 334 346 354 359 360 360 361 362
335 338 339 339 339 341 343 350 350 350 350 348 348 327 330 337 359 361 361 362 362 361
327 331 334 337 338 339 340 342 343 345 347 348 344 325 325 331 357 359 358 358 358 358
326 326 324 325 329 335 336 338 338 341 342 345 344 325 325 337 348 352 352 353 353 353
320 321 320 321 321 326 330 332 334 338 340 329 334 317 317 328 337 336 339 344 339 325
316 316 318 319 321 323 325 327 328 330 332 333 327 321 312 313 332 329 329 330 331 336

GFSNIL_sfc_thetae_120.txt.gz
Theta_e
360 360 364 359 353 352 352 356 361 363 362 363 365 363 367 361 359 363 363 360 363 359
360 361 365 363 360 357 359 355 359 360 360 361 362 364 365 358 362 363 362 363 364 359
359 361 363 365 363 363 362 359 361 360 360 361 362 362 365 360 363 364 359 355 363 362
357 359 362 358 361 364 363 363 362 362 360 360 360 362 365 361 360 361 361 362 361 361
358 358 357 360 361 363 366 367 365 363 361 361 360 362 361 358 356 358 357 358 359 359
356 356 357 358 358 361 362 364 365 365 364 359 360 361 360 360 359 358 357 357 358 358
357 357 357 360 361 364 363 364 364 365 364 362 361 362 360 360 360 359 356 357 358 358
352 356 356 356 360 363 362 358 360 363 363 361 359 357 361 360 360 358 357 356 358 358
349 349 349 351 352 356 361 362 363 362 361 360 357 332 337 348 359 359 359 358 359 361
346 347 348 348 349 347 351 357 358 360 359 358 355 328 330 338 360 361 361 362 360 357
337 340 342 344 345 347 348 349 350 352 354 350 341 325 327 333 361 363 362 361 361 361
327 329 330 333 339 344 345 346 347 347 350 339 333 317 319 334 356 355 355 351 345 353
325 327 325 325 333 337 342 338 343 340 337 330 331 312 313 326 345 345 346 347 345 325
324 322 325 329 331 330 334 338 333 332 333 327 324 318 311 311 333 331 334 333 337 335

GFSNIL_sfc_thetae_123.txt.gz
Theta_e
361 356 357 359 355 350 350 355 361 362 362 363 364 363 365 362 359 365 361 363 368 360
361 359 357 361 364 355 360 356 359 363 364 362 363 363 365 358 360 363 362 362 363 360
359 360 360 360 361 361 361 358 361 360 360 361 362 363 366 363 366 363 360 356 363 365
357 358 361 357 359 362 363 363 361 361 361 360 360 362 364 365 363 361 362 361 361 360
357 358 358 359 360 362 363 366 364 362 362 361 360 362 361 359 356 357 357 357 360 357
356 355 356 359 360 361 362 364 362 364 362 361 360 361 362 362 360 358 356 356 356 356
358 357 355 360 360 360 363 362 362 363 362 361 361 361 360 360 360 359 357 356 357 356
363 363 359 360 361 361 362 358 362 363 361 360 359 355 361 359 358 359 357 356 356 358
356 356 358 359 360 361 361 361 362 361 361 360 357 332 337 350 360 359 359 358 359 360
350 350 352 354 354 356 359 363 361 361 360 358 353 328 331 339 357 359 359 361 362 358
341 344 349 350 351 352 353 356 357 357 358 346 331 320 322 330 353 362 361 360 361 361
330 333 333 338 342 347 349 351 350 350 341 336 328 315 317 328 358 358 356 351 346 350
326 325 325 330 329 338 342 344 340 338 337 326 328 313 314 322 356 351 354 351 339 319
322 324 327 328 327 330 337 335 332 328 325 326 326 319 312 313 334 335 339 338 338 334

GFSNIL_sfc_thetae_126.txt.gz
Theta_e
367 359 360 363 365 356 349 355 364 367 369 367 369 369 369 367 366 366 367 366 366 363
366 364 363 365 362 358 358 359 365 365 368 367 357 370 368 365 364 359 365 364 365 365
362 365 366 367 367 368 369 354 360 364 362 363 360 367 368 364 365 364 364 362 362 366
360 362 363 362 364 365 369 371 366 368 361 365 360 366 366 364 363 361 361 364 361 362
362 364 361 362 364 367 369 371 366 367 367 361 365 361 362 363 360 358 361 361 363 361
359 362 362 362 359 364 367 364 365 367 366 366 363 361 363 362 361 363 358 358 361 360
358 361 359 364 365 366 364 363 364 365 363 364 363 366 357 358 361 360 359 358 357 361
362 363 363 364 364 365 365 363 363 362 361 361 364 351 349 358 357 361 362 361 360 360
361 362 361 363 362 363 363 364 362 363 356 356 347 333 335 345 363 358 355 355 360 363
355 357 357 358 359 360 361 361 359 358 354 347 337 325 329 336 356 361 360 356 361 358
339 337 346 350 349 352 358 360 360 357 347 336 325 318 321 328 350 358 357 354 352 350
329 328 332 330 337 343 353 351 343 340 335 329 322 316 318 330 351 357 348 338 333 341
326 325 326 327 330 335 338 337 332 329 329 324 323 314 315 330 344 351 348 335 328 320
327 327 327 326 328 331 333 330 326 324 325 326 322 319 313 315 328 328 340 339 336 326

GFSNIL_sfc_thetae_129.txt.gz
Theta_e
350 349 350 349 348 348 348 347 350 353 352 352 354 354 354 352 352 352 351 348 354 354
352 349 348 351 352 350 349 356 355 353 354 352 353 354 354 352 349 352 354 352 351 352
351 352 352 352 351 350 349 348 353 353 353 353 351 355 349 350 351 351 351 351 350 349
351 352 353 351 351 352 352 347 347 350 350 352 355 353 352 349 349 347 347 350 348 349
352 353 352 351 352 354 351 353 353 352 353 351 352 350 352 349 351 349 345 348 347 348
349 351 351 351 353 354 353 353 354 353 351 350 350 351 354 351 350 350 351 352 351 349
347 349 351 352 352 351 354 352 352 353 351 351 351 351 351 351 350 349 351 352 352 349
347 350 349 351 350 351 351 354 353 352 352 351 348 343 339 345 351 348 348 348 351 347
345 347 346 349 351 350 351 353 351 351 348 344 341 330 333 340 347 346 344 345 344 347
341 342 344 345 347 348 349 350 348 346 341 333 327 323 327 334 346 346 346 344 344 345
332 334 333 335 340 343 344 344 343 335 328 323 321 319 321 329 343 345 339 339 339 328
330 328 329 329 332 339 342 338 335 330 323 318 316 316 321 332 345 335 327 325 329 325
327 327 327 330 331 334 332 329 326 323 323 320 316 315 315 325 340 331 324 320 317 320
323 326 327 328 331 330 326 324 322 320 321 319 317 315 312 315 318 325 330 326 320 317